Regional Weather Roundup
Issued by NWS Newport/Morehead, NC

Home | Current Version | Previous Version | Text Only | Print | Product List | Glossary On
Versions: 1 2 3 4 5 6 7 8 9 10 11 12 13 14 15 16 17 18 19 20 21 22 23 24 25 26 27 28 29 30 31 32 33 34 35 36 37 38 39 40 41 42 43 44 45 46 47 48 49 50
354
ASUS42 KMHX 280225
RWRMHX
WEATHER ROUNDUP FOR EASTERN NORTH CAROLINA
NATIONAL WEATHER SERVICE NEWPORT/MOREHEAD CITY NC
1000 PM EDT THU JUL 27 2017

NOTE: "FAIR" INDICATES FEW OR NO CLOUDS BELOW 12,000 FEET
WITH NO SIGNIFICANT WEATHER AND/OR OBSTRUCTIONS TO VISIBILITY

NCZ015>017-031-032-045>047-102-103-280300-
NORTH COAST

CITY           SKY/WX    TMP DP  RH WIND       PRES   REMARKS
EDENTON        CLOUDY    82  72  71 SW12      29.94R
ELIZABETH CITY PTCLDY    81  73  76 S9        29.92S
KITTY HAWK     CLOUDY    80  69  69 S6        29.93S HAZE
MANTEO         CLOUDY    80  71  74 SW18G24   29.94F

$$

NCZ045>047-081-094-103-104-280300-
CENTRAL COAST

CITY           SKY/WX    TMP DP  RH WIND       PRES   REMARKS
FRISCO         PTCLDY    80  71  74 S12       29.96F

$$

NCZ095-097-098-100-101-280300-
SOUTHERN COAST

CITY           SKY/WX    TMP DP  RH WIND       PRES   REMARKS
BEAUFORT       CLOUDY    81  72  74 S10       29.96S
CEDAR ISLAND   NOT AVBL
JACKSONVILLE   CLOUDY    78  75  90 S3        29.95S
PINEY ISLAND   CLOUDY   N/A N/A N/A S6        29.96S
WILMINGTON     PTCLDY    78  74  87 S5        29.97R


$$

NCZ011>013-027>030-043-044-078>080-089-090>093-098-280300-
COASTAL PLAIN

CITY           SKY/WX    TMP DP  RH WIND       PRES   REMARKS
AHOSKIE          N/A     78  72  80 S6        29.92R
CLINTON        PTCLDY    79  71  76 S5        29.96R
ELIZABETHTOWN  NOT AVBL
GOLDSBORO      CLOUDY    80  73  79 S6        29.93R
GREENVILLE     MOCLDY    81  68  65 SW12      29.96S
HAVELOCK       PTCLDY    78  70  76 S6        29.96S
KENANSVILLE    PTCLDY    77  72  83 S5        29.96S
KINSTON        CLOUDY    81  68  65 S9        29.96R
NEW BERN       CLOUDY    78  73  84 S8        29.97R
RICHLANDS      CLOUDY    76  74  93 S5        29.97R
ROCKY MOUNT    CLOUDY    81  71  71 S6        29.92S
WASHINGTON     MOCLDY    79  69  73 SW8       29.95R
WHITEVILLE     PTCLDY    78  74  87 S3        29.96R

$$

AMZ130-135-150-152-154-156-158-170-250-252-270-ANZ085-086-088-633-658-670-280300-
MARINE OBSERVATIONS

STATION/POSITION TIME  TEMP    WIND        PRES    WAVE   SWELL
                       AIR SEA DIR/SP/G            HT/PER HT/PER
                 (UTC) (F)     (DEG/KT/KT) (MB)    (FT/S) (FT/S)
CHESAPEAKE LIGHT NOT AVBL
64 E VA BEACH    0150   79 78  200/ 16/ 17 1013.5    3/ 4   2/ 8
DUCK             0200   81 67  200/ 18/ 20 1012.9
2 E DUCK         0200      73                N/A     3/ 8
OREGON INLET     0200   81 81  190/ 17/ 21 1013.7
13E OREGON INLT  0148      78                N/A     2/ 7   2/ 7
HATTERAS CG      0200   80 80  190/  6/ 11 1014.4
DIAMOND BUOY     0150   82 83  180/ 14/ 17 1014.4    2/ 8   2/ 8
CAPE LOOKOUT     0200   81     170/ 13/ 14 1014.3
BEAUFORT LAB     0200   81 81  190/ 14/ 16 1013.9
30 SE NEW RVR IN 0208   82 84  180/ 12/ 14 1014.6
30 SE NEW RVR IN 0143      84                N/A     2/ 8
27 SE WRIGHTSVLE 0208   82 83  170/ 12/ 16 1014.5
5 SE WRIGHTSVLE  0208   81 82  190/ 10/ 16 1014.4
225 S CAPE HAT   0150   82 83  250/  6/  6 1015.7    3/ 7   3/ 7
41 SE CHARLESTON 0210   82 83  200/ 12/ 14 1014.4

$$




USA.gov is the U.S. government's official web portal to all federal, state and local government web resources and services.